Shelton, WA

4:54 PM PDT on April 30, 2017 (GMT -0700)
Sanderson

Weather History for KSHN - February, 2014

Change the Weather History Date:

Monday, February 17, 2014

  Actual Average Record
Temperature  
Mean Temperature 40 °F -  
Max Temperature 44 °F 48 °F 62 °F (2015)
Min Temperature 35 °F 35 °F 24 °F (2005)
Degree Days  
Heating Degree Days 26    
Moisture  
Dew Point 38 °F    
Average Humidity 91    
Maximum Humidity 100    
Minimum Humidity 80    
Precipitation  
Precipitation 0.82 in - - ()
Sea Level Pressure  
Sea Level Pressure 29.80 in    
Wind  
Wind Speed 8 mph (SW)    
Max Wind Speed 17 mph    
Max Gust Speed 30 mph    
Visibility 7 miles    
Events Rain    
Averages and records for this station are not official NWS values.
T = Trace of Precipitation, MM = Missing Value Source: NWS Daily Summary

Daily Weather History Graph

Daily Weather History Graph

Search for Another Location

Airport or City:

Trip Planner

Search our weather history database for the weather conditions in past years. The results will help you decide how hot, cold, wet, or windy it might be!

Date:

Astronomy

Feb. 17, 2014 Rise Set
Actual Time 7:13 AM PST 5:39 PM PST
Civil Twilight 6:42 AM PST 6:11 PM PST
Nautical Twilight 6:06 AM PST 6:46 PM PST
Astronomical Twilight 5:31 AM PST 7:22 PM PST
Moon 8:55 PM PST (2/17) 8:04 AM PST (2/17)
Length of Visible Light 11h 28m
Length of Day
10h 25m
Waning Gibbous, 93% of the Moon is Illuminated
Feb 17
Waning Gibbous
Feb 22
Last Quarter
Mar 1
New
Mar 8
First Quarter
Mar 16
Full

Hourly Weather History & Observations

Time (PST) Temp. Windchill Dew Point Humidity Pressure Visibility Wind Dir Wind Speed Gust Speed Precip Events Conditions
12:53 AM 43.0 °F 38.2 °F 41.0 °F 93% 29.72 in 6.0 mi South 8.1 mph - 0.08 in Rain Light Rain
1:22 AM 43.0 °F 37.7 °F 41.0 °F 93% 29.69 in 10.0 mi SSE 9.2 mph - 0.02 in Rain Light Rain
2:28 AM 44.1 °F 38.1 °F 41.0 °F 89% 29.70 in 6.0 mi SSW 11.5 mph - 0.04 in Rain Light Rain
2:53 AM 43.0 °F 37.7 °F 41.0 °F 93% 29.72 in 9.0 mi SW 9.2 mph - 0.07 in Rain Light Rain
3:37 AM 43.0 °F 38.8 °F 41.0 °F 93% 29.70 in 4.0 mi SW 6.9 mph - 0.08 in Rain Rain
3:53 AM 43.0 °F 40.3 °F 41.0 °F 93% 29.70 in 6.0 mi WSW 4.6 mph - 0.10 in Rain Light Rain
4:20 AM 41.0 °F 35.8 °F 39.0 °F 93% 29.70 in 5.0 mi WSW 8.1 mph - 0.03 in Rain Light Rain
4:53 AM 41.0 °F 38.0 °F 39.0 °F 93% 29.70 in 8.0 mi SSW 4.6 mph - 0.07 in Rain Light Rain
5:53 AM 39.9 °F 36.7 °F 39.0 °F 97% 29.69 in 9.0 mi SE 4.6 mph - 0.09 in Rain Light Rain
6:40 AM 39.9 °F 35.1 °F 39.0 °F 97% 29.70 in 6.0 mi NW 6.9 mph - 0.04 in Rain Light Rain
6:51 AM 39.2 °F 35.9 °F 39.2 °F 100% 29.70 in 4.0 mi SE 4.6 mph - 0.07 in Rain Light Rain
6:53 AM 39.9 °F 35.8 °F 39.0 °F 97% 29.71 in 6.0 mi SE 5.8 mph - 0.07 in Rain Light Rain
7:24 AM 41.0 °F - 39.0 °F 93% 29.70 in 7.0 mi Calm Calm - 0.03 in Rain Light Rain
7:53 AM 41.0 °F 38.0 °F 39.0 °F 93% 29.71 in 9.0 mi SE 4.6 mph - 0.05 in Rain Light Rain
8:53 AM 41.0 °F 37.1 °F 39.0 °F 93% 29.73 in 10.0 mi SSW 5.8 mph - 0.03 in Rain Light Rain
9:53 AM 44.1 °F 38.6 °F 39.9 °F 85% 29.74 in 10.0 mi SW 10.4 mph - 0.00 in Rain Light Rain
10:53 AM 43.0 °F 35.1 °F 39.0 °F 86% 29.77 in 4.0 mi SW 17.3 mph 29.9 mph 0.02 in Rain Light Rain
11:28 AM 41.0 °F 35.2 °F 37.9 °F 89% 29.78 in 3.0 mi WSW 9.2 mph 25.3 mph 0.03 in Rain Rain
11:53 AM 42.1 °F 36.1 °F 39.0 °F 89% 29.79 in 10.0 mi WSW 10.4 mph - 0.05 in Rain Light Rain
12:37 PM 39.9 °F 33.9 °F 36.0 °F 86% 29.79 in 2.5 mi West 9.2 mph - 0.04 in Rain Rain
12:49 PM 39.2 °F 32.0 °F 37.4 °F 93% 29.80 in 6.0 mi SW 11.5 mph - 0.06 in Rain Light Rain
12:53 PM 39.9 °F 33.9 °F 37.0 °F 89% 29.81 in 10.0 mi SW 9.2 mph - 0.06 in Rain Light Rain
1:53 PM 42.1 °F 36.1 °F 39.9 °F 92% 29.83 in 10.0 mi SW 10.4 mph - 0.01 in Rain Light Rain
2:12 PM 42.1 °F 34.9 °F 37.9 °F 85% 29.82 in 4.0 mi WSW 13.8 mph 26.5 mph 0.03 in Rain Light Rain
2:26 PM 42.1 °F 37.1 °F 37.9 °F 85% 29.82 in 10.0 mi SW 8.1 mph - 0.03 in   Overcast
2:53 PM 42.1 °F 36.1 °F 39.0 °F 89% 29.83 in 10.0 mi SSW 10.4 mph - 0.03 in   Mostly Cloudy
3:53 PM 44.1 °F 38.6 °F 39.9 °F 85% 29.85 in 10.0 mi SW 10.4 mph - 0.00 in   Clear
4:31 PM 43.0 °F 38.2 °F 37.0 °F 80% 29.84 in 10.0 mi WNW 8.1 mph - 0.00 in Rain Light Rain
4:40 PM 42.1 °F 37.1 °F 37.0 °F 82% 29.85 in 10.0 mi West 8.1 mph - 0.00 in Rain Light Rain
4:53 PM 41.0 °F 37.1 °F 37.0 °F 86% 29.86 in 10.0 mi West 5.8 mph - 0.00 in   Overcast
5:53 PM 37.0 °F 32.4 °F 35.1 °F 93% 29.87 in 10.0 mi SW 5.8 mph - 0.00 in   Scattered Clouds
6:53 PM 37.9 °F 34.4 °F 37.0 °F 97% 29.88 in 10.0 mi ESE 4.6 mph - 0.00 in   Mostly Cloudy
7:30 PM 36.0 °F - 34.0 °F 93% 29.87 in 4.0 mi Calm Calm - N/A   Mostly Cloudy
7:49 PM 35.6 °F 32.8 °F 33.8 °F 93% 29.88 in 2.5 mi SW 3.5 mph - N/A   Mostly Cloudy
7:53 PM 35.1 °F 31.0 °F 34.0 °F 96% 29.89 in 5.0 mi South 4.6 mph - N/A   Overcast
8:53 PM 39.0 °F 35.7 °F 37.0 °F 93% 29.91 in 9.0 mi WSW 4.6 mph - 0.00 in Rain Light Rain
9:13 PM 39.0 °F - 37.0 °F 93% 29.89 in 10.0 mi Calm Calm - 0.00 in   Overcast
9:50 PM 41.0 °F 36.4 °F 39.2 °F 93% 29.91 in 5.0 mi SW 6.9 mph - 0.02 in Rain Light Rain
9:53 PM 41.0 °F 35.2 °F 39.0 °F 93% 29.92 in 3.0 mi SW 9.2 mph 16.1 mph 0.04 in Rain Rain
10:30 PM 39.9 °F 35.1 °F 37.9 °F 93% 29.91 in 10.0 mi SE 6.9 mph - 0.03 in   Overcast
10:53 PM 41.0 °F 35.8 °F 39.0 °F 93% 29.92 in 10.0 mi South 8.1 mph - 0.03 in   Overcast
11:53 PM 41.0 °F 37.1 °F 39.0 °F 93% 29.94 in 5.0 mi West 5.8 mph - 0.02 in Rain Light Rain